DW9246 Weather Reports


Display with metric or nautical units.
time (UTC)temp
F
wind
direction
speed
MPH
gust
MPH
rain 1hr
in
rain 24hr
in
rain mn
in
humidity
%
barometer
mb
20260509152025 58 148 5.0 10.0 0.16 0.17 0.18 87 1013.3
20260509151020 58 155 7.0 11.0 0.11 0.13 0.13 87 1013.5
20260509150022 59 152 3.0 10.0 0.06 0.08 0.08 86 1013.5
20260509145021 59 163 6.0 10.0 0.06 0.07 0.07 85 1013.5
20260509144020 60 178 5.0 9.0 0.03 0.05 0.05 84 1013.3
20260509143019 60 189 5.0 8.0 0.01 0.02 0.02 82 1013.1
20260509141020 60 111 3.0 6.0 0.02 0.02 0.02 81 1012.0
20260509140021 60 77 3.0 9.0 0.02 0.02 0.02 81 1011.4
20260509135020 60 59 3.0 10.0 0.02 0.02 0.02 81 1011.2
20260509134020 60 61 5.0 11.0 0.02 0.02 0.02 81 1011.2
20260509133020 60 67 2.0 6.0 0.02 0.02 0.02 80 1011.3
20260509132020 61 104 2.0 4.0 0.01 0.01 0.01 78 1011.9
20260509131020 61 141 3.0 7.0 0.00 0.00 0.00 77 1012.4
20260509130022 62 125 1.0 6.0 0.00 0.00 0.00 75 1012.8
20260509125021 62 125 0.0 1.0 0.00 0.00 0.00 74 1013.0
20260509124020 62 125 0.0 2.0 0.00 0.00 0.00 74 1013.1
20260509123022 62 126 0.0 2.0 0.00 0.00 0.00 75 1013.2
20260509122020 62 117 2.0 4.0 0.00 0.00 0.00 75 1013.2
20260509120021 62 118 3.0 8.0 0.00 0.00 0.00 75 1013.0
20260509114020 62 105 6.0 12.0 0.00 0.00 0.00 76 1013.3
20260509113020 61 104 6.0 12.0 0.00 0.00 0.00 77 1013.5
20260509112019 62 127 4.0 9.0 0.00 0.00 0.00 78 1013.7
20260509111019 61 138 3.0 9.0 0.00 0.00 0.00 78 1014.0
20260509105022 61 131 7.0 11.0 0.00 0.00 0.00 78 1013.7
20260509104018 61 138 7.0 12.0 0.00 0.00 0.00 78 1013.7
20260509102020 62 156 7.0 16.0 0.00 0.00 0.00 78 1014.1
20260509101020 62 147 6.0 12.0 0.00 0.00 0.00 76 1014.2
20260509095019 62 111 3.0 7.0 0.00 0.00 0.00 75 1013.9
20260509094019 62 127 4.0 9.0 0.00 0.00 0.00 75 1014.1
20260509092020 63 120 5.0 11.0 0.00 0.00 0.00 74 1014.0
20260509091020 62 98 6.0 14.0 0.00 0.00 0.00 75 1013.6
20260509085019 62 104 6.0 10.0 0.00 0.00 0.00 75 1013.5
20260509084023 62 83 7.0 12.0 0.00 0.00 0.00 75 1013.5
20260509083022 62 89 7.0 13.0 0.00 0.00 0.00 75 1013.3
20260509082019 62 76 5.0 11.0 0.00 0.00 0.00 76 1013.4
20260509081019 61 65 4.0 10.0 0.00 0.00 0.00 77 1013.4
20260509075021 61 67 5.0 10.0 0.00 0.00 0.00 77 1013.6
20260509074020 60 84 5.0 11.0 0.00 0.00 0.00 78 1013.8
20260509073020 60 77 5.0 13.0 0.00 0.00 0.00 78 1013.8
20260509071019 60 77 7.0 18.0 0.00 0.00 0.00 78 1013.4
20260509070024 60 75 7.0 12.0 0.00 0.00 0.00 78 1013.4
20260509065019 60 70 7.0 14.0 0.00 0.00 0.00 78 1013.6
20260509064024 60 64 8.0 14.0 0.00 0.00 0.00 78 1013.4
20260509063019 60 64 7.0 11.0 0.00 0.00 0.00 77 1013.4
20260509062021 60 59 7.0 13.0 0.00 0.00 0.00 77 1013.4
20260509061019 60 58 6.0 11.0 0.00 0.00 0.00 78 1013.7
20260509054018 59 57 8.0 13.0 0.00 0.00 0.00 78 1013.4
20260509053018 59 58 6.0 11.0 0.00 0.00 0.00 79 1013.4
20260509051019 59 53 6.0 10.0 0.00 0.00 0.00 79 1013.4
20260509050020 59 49 6.0 12.0 0.00 0.00 0.00 79 1013.5
20260509045019 59 43 6.0 11.0 0.00 0.00 0.00 79 1013.5
20260509042019 58 66 6.0 11.0 0.00 0.00 0.00 81 1013.5
20260509041019 59 64 6.0 12.0 0.00 0.00 0.00 81 1013.5
20260509040022 59 64 6.0 11.0 0.00 0.00 0.00 81 1013.6
20260509035021 59 68 6.0 10.0 0.00 0.00 0.00 81 1013.8
20260509032022 59 68 6.0 11.0 0.00 0.00 0.00 82 1014.2
20260509031019 59 59 6.0 10.0 0.00 0.00 0.00 82 1014.2
20260509030019 59 58 5.0 11.0 0.00 0.00 0.00 82 1014.3
20260509025020 59 65 5.0 9.0 0.00 0.00 0.00 82 1014.4
20260509024020 59 63 5.0 11.0 0.00 0.00 0.00 82 1014.3
20260509023020 59 65 5.0 9.0 0.00 0.00 0.00 83 1014.4
20260509021022 59 66 5.0 9.0 0.00 0.00 0.00 82 1014.2
20260509020021 59 60 5.0 9.0 0.00 0.00 0.00 83 1014.3
20260509015020 59 55 5.0 9.0 0.00 0.00 0.00 83 1014.4
20260509014019 59 61 4.0 10.0 0.00 0.00 0.00 83 1014.4
20260509013019 58 62 4.0 7.0 0.00 0.00 0.00 83 1014.7
20260509012021 58 46 4.0 8.0 0.00 0.00 0.00 83 1014.8
20260509011023 58 44 3.0 6.0 0.00 0.00 0.00 83 1015.0
20260509005020 58 60 4.0 8.0 0.00 0.00 0.00 83 1015.2
20260509004019 58 61 4.0 8.0 0.00 0.00 0.00 83 1015.1
20260509002023 59 67 3.0 6.0 0.00 0.00 0.00 83 1015.4
20260509001021 59 72 3.0 6.0 0.00 0.00 0.00 83 1015.4
20260509000022 59 80 3.0 6.0 0.00 0.00 0.00 83 1015.5
20260508235020 59 66 4.0 6.0 0.00 0.00 0.00 83 1015.5
20260508234020 59 67 3.0 6.0 0.00 0.00 0.00 82 1015.5
20260508233020 59 74 3.0 5.0 0.00 0.00 0.00 82 1015.6
20260508232020 59 74 3.0 5.0 0.00 0.00 0.00 82 1015.8
20260508231024 59 74 3.0 5.0 0.00 0.00 0.00 82 1015.8
20260508225019 59 72 3.0 6.0 0.00 0.00 0.00 83 1015.6
20260508224020 59 62 2.0 5.0 0.00 0.00 0.00 83 1015.7
20260508223020 58 48 2.0 5.0 0.00 0.00 0.00 84 1015.8
20260508222020 58 42 3.0 5.0 0.00 0.00 0.00 84 1015.9
20260508220025 58 16 1.0 3.0 0.00 0.00 0.00 84 1015.8
20260508215020 57 16 1.0 3.0 0.00 0.00 0.00 84 1015.9
20260508214019 57 16 2.0 3.0 0.00 0.00 0.00 84 1015.9
20260508213019 57 59 2.0 3.0 0.00 0.00 0.00 84 1015.8
20260508212019 57 106 2.0 3.0 0.00 0.00 0.00 83 1015.7
20260508211020 57 106 1.0 3.0 0.00 0.00 0.00 83 1015.8
20260508210021 57 106 2.0 3.0 0.00 0.00 0.00 83 1015.9
20260508205022 57 106 1.0 3.0 0.00 0.00 0.00 82 1015.9
20260508204019 58 106 1.0 3.0 0.00 0.00 0.00 82 1015.7
20260508202019 58 107 1.0 3.0 0.00 0.00 0.00 82 1015.7
20260508201019 58 106 1.0 3.0 0.00 0.00 0.00 82 1015.6
20260508200021 58 106 1.0 2.0 0.00 0.00 0.00 81 1015.4
20260508195019 58 106 0.0 2.0 0.00 0.00 0.00 81 1015.4
20260508194023 59 116 1.0 4.0 0.00 0.00 0.00 81 1015.3
20260508193017 59 146 2.0 4.0 0.00 0.00 0.00 81 1015.2
20260508192019 59 141 3.0 6.0 0.00 0.00 0.00 80 1015.1
20260508190020 60 154 3.0 8.0 0.00 0.00 0.00 79 1014.9
20260508185020 60 155 4.0 8.0 0.00 0.00 0.00 79 1014.6
20260508184020 61 145 3.0 8.0 0.00 0.00 0.00 78 1014.5
20260508183021 61 129 2.0 5.0 0.00 0.00 0.00 77 1014.5
20260508182019 61 106 2.0 4.0 0.00 0.00 0.00 76 1014.4
20260508181019 62 100 2.0 7.0 0.00 0.00 0.00 75 1014.4
20260508180020 62 117 2.0 4.0 0.00 0.00 0.00 75 1014.4
20260508175018 62 101 3.0 8.0 0.00 0.00 0.00 75 1014.2
20260508174018 62 150 2.0 6.0 0.00 0.00 0.00 74 1014.1
20260508172019 62 145 7.0 11.0 0.00 0.00 0.00 75 1014.0
20260508171018 62 144 6.0 11.0 0.00 0.00 0.00 73 1014.1
20260508170018 62 164 5.0 10.0 0.00 0.00 0.00 73 1014.1
20260508165017 62 153 5.0 10.0 0.00 0.00 0.00 71 1014.3
20260508164018 63 165 6.0 11.0 0.00 0.00 0.00 72 1014.3
20260508163018 63 161 5.0 10.0 0.00 0.00 0.00 70 1014.2
20260508162019 63 157 5.0 10.0 0.00 0.00 0.00 69 1014.2
20260508161019 63 172 6.0 11.0 0.00 0.00 0.00 68 1014.2
20260508160019 64 155 6.0 10.0 0.00 0.00 0.00 69 1014.3
20260508155018 64 164 7.0 12.0 0.00 0.00 0.00 70 1014.0
20260508154020 64 169 10.0 16.0 0.00 0.00 0.00 67 1014.1